Wind_Speed
25 25 23 24 23 22 21 20 20 20 19 18 16 15 15 15 16 16 15 14 14 14 14 14 13 13 14 15 15 15 15 16 16 17 16 16 16 17 18 18 19 19 19 19
27 26 26 25 25 24 23 22 22 21 20 19 18 17 17 16 17 16 15 14 14 14 15 15 14 14 15 16 16 15 16 16 17 17 17 17 18 18 18 19 19 20 19 19
29 28 27 27 25 25 24 24 24 23 22 21 19 19 18 18 17 17 16 15 15 16 17 17 16 15 16 17 17 17 17 17 18 18 17 18 19 19 19 19 19 19 19 20
30 30 30 27 26 26 26 26 25 24 23 22 21 20 20 19 18 18 18 18 18 18 18 18 17 16 17 18 18 18 18 18 18 18 18 18 19 19 20 20 20 20 20 19
29 29 30 28 27 27 27 27 26 25 24 23 22 21 21 20 20 20 20 20 19 19 19 20 19 19 20 20 20 19 19 19 19 19 19 19 20 20 21 21 22 21 21 21
30 30 31 29 28 28 27 27 25 25 24 23 23 23 22 22 21 21 20 20 20 21 21 21 21 21 22 22 22 21 20 20 20 21 20 20 20 21 21 22 22 22 22 22
31 32 31 28 28 28 27 25 25 25 25 24 24 23 23 22 22 22 22 21 22 22 22 22 22 22 23 23 23 22 21 20 21 22 21 21 22 22 22 23 23 23 23 22
33 33 31 28 27 27 27 26 26 25 25 26 25 24 23 22 22 22 23 22 22 23 23 23 23 24 25 24 24 23 22 21 21 22 22 22 23 23 23 24 24 24 24 24
33 32 31 29 29 28 28 27 27 27 27 27 26 24 24 23 23 23 23 23 23 24 24 24 24 25 26 25 25 25 24 23 23 23 24 24 24 24 24 25 25 25 26 25
33 32 32 31 30 30 29 29 29 29 28 27 26 25 24 24 24 24 24 24 25 25 25 25 25 26 27 25 24 24 24 24 25 25 25 25 25 25 26 27 27 27 28 27
34 33 33 32 32 31 30 30 29 29 29 28 28 27 26 26 25 25 25 26 26 26 26 26 26 26 27 26 25 24 24 25 26 26 26 26 26 27 28 28 28 29 29 29
34 34 33 32 32 32 31 30 30 30 29 29 29 29 28 28 27 27 27 27 26 26 25 26 26 26 26 26 26 25 25 25 26 27 27 27 27 28 29 29 30 30 29 29
35 34 34 33 33 32 32 32 31 31 30 31 30 30 29 29 29 28 28 27 26 26 25 26 26 26 25 25 25 25 26 26 27 28 29 29 29 29 29 30 31 30 29 28
34 34 34 33 33 32 32 32 32 31 31 31 31 30 30 29 29 28 28 28 27 26 26 26 27 27 27 26 26 27 27 28 29 29 30 30 30 30 30 30 31 30 30 29
34 34 34 34 33 32 32 32 32 32 31 31 31 31 31 31 30 29 29 29 28 27 26 27 28 27 26 26 27 27 28 29 29 30 31 30 30 30 30 31 31 31 30 29
33 34 34 34 34 33 33 32 31 31 31 31 32 32 32 31 29 30 29 28 28 28 28 28 27 26 26 26 27 28 28 28 29 30 31 31 31 31 32 32 31 30 30 29
32 32 32 32 32 32 32 32 32 32 31 31 32 32 31 30 29 29 28 28 28 29 28 27 27 26 26 27 28 29 29 29 29 30 31 31 31 31 31 30 30 29 29 29
31 30 30 30 30 31 31 31 31 31 31 31 31 31 30 29 30 30 29 28 28 28 27 27 26 26 26 27 28 28 29 30 30 30 30 31 30 29 29 30 30 30 29 28
30 30 29 29 29 30 30 30 30 30 30 31 31 30 29 29 29 29 29 29 29 28 28 28 27 27 28 29 29 29 29 29 29 30 30 30 29 30 30 30 30 30 29 28
28 28 29 28 28 28 28 28 28 29 29 30 30 29 28 27 27 28 28 29 28 28 28 27 28 29 29 29 29 29 28 29 29 29 29 28 28 29 30 30 30 29 28 27
27 27 28 28 27 27 27 26 26 28 29 29 29 28 26 26 26 26 27 27 27 28 28 28 28 28 29 28 28 27 27 27 28 28 28 28 28 28 29 29 29 29 27 26
25 26 27 27 27 27 27 27 28 29 29 29 28 27 26 26 26 26 26 26 27 27 27 27 27 27 27 27 27 26 27 27 27 27 27 27 27 27 28 28 28 27 27 27
24 25 25 25 26 26 27 27 28 28 27 27 26 26 26 26 26 25 25 25 26 26 26 27 27 27 27 26 26 26 27 27 26 26 27 27 27 27 27 28 28 27 27 27
22 22 23 24 25 26 26 26 25 25 25 25 26 26 26 26 26 25 25 25 25 26 26 26 27 27 26 25 25 26 26 26 26 26 27 27 27 27 27 28 27 27 26 26
20 20 21 22 23 23 23 24 24 25 26 26 26 26 26 26 26 26 26 26 26 26 26 26 26 26 26 26 25 25 25 26 26 27 27 27 27 27 27 27 27 26 25 24
19 19 19 20 21 22 23 23 23 24 25 25 25 26 26 25 25 25 26 26 25 25 26 26 26 25 25 25 25 26 26 26 26 27 27 27 27 27 27 26 25 25 25 24
17 17 18 19 19 20 21 21 22 23 23 24 24 24 25 24 24 24 24 23 24 25 26 26 26 25 25 26 26 26 26 26 26 26 27 27 26 25 25 24 25 24 24 24
Wind_Direction
250 250 253 255 259 263 267 272 277 283 286 290 289 288 289 287 288 290 294 297 299 305 309 312 309 312 315 316 316 317 319 322 323 324 323 323 326 326 324 322 321 319 316 314
251 253 254 255 258 261 265 270 275 280 283 285 288 287 286 285 288 289 290 295 298 302 306 306 302 304 309 310 310 311 313 317 321 321 319 319 320 321 322 322 321 320 317 315
252 254 256 256 258 261 263 268 274 276 280 282 284 283 282 283 286 288 288 290 294 300 302 301 296 297 301 304 307 310 311 313 316 319 317 316 318 318 319 320 321 322 320 317
252 253 256 259 259 262 266 269 274 277 279 279 279 280 280 280 281 283 283 286 291 295 298 299 295 294 298 300 304 307 309 311 314 317 317 318 318 319 321 321 321 320 318 317
252 254 256 259 260 264 267 270 273 276 277 279 279 279 279 279 280 282 282 284 287 290 292 295 293 293 296 299 302 303 305 308 310 312 314 314 315 317 318 318 318 316 317 317
252 254 257 261 262 264 268 270 272 274 274 274 276 276 278 279 280 281 281 283 285 287 289 291 292 294 297 299 300 299 301 304 306 308 310 312 312 313 313 314 315 315 314 315
253 255 258 261 263 264 265 270 270 271 272 274 278 277 279 280 278 279 279 281 283 284 286 288 288 290 294 296 297 297 297 300 303 305 306 308 309 309 309 310 311 313 312 312
253 256 258 260 261 263 265 266 267 269 272 275 277 276 276 277 278 279 279 279 281 281 283 286 287 288 290 292 294 293 294 297 299 302 303 306 308 309 308 308 310 311 311 310
252 255 257 258 259 261 263 265 267 270 272 273 274 274 274 274 275 275 277 278 280 282 283 285 286 288 290 290 291 292 294 298 299 299 300 302 305 308 310 310 310 309 309 307
251 252 254 257 258 260 262 264 266 268 269 269 272 272 273 273 274 276 276 276 279 281 283 285 286 287 291 292 293 294 295 296 297 298 297 298 301 304 308 309 309 310 310 309
250 251 253 257 259 260 262 263 265 264 266 266 268 267 268 271 273 276 277 278 278 281 283 285 286 288 290 290 292 292 294 295 295 295 296 298 300 303 306 307 307 308 308 308
250 252 253 256 258 259 261 262 264 265 266 265 267 267 268 270 273 276 277 280 280 281 282 284 285 287 289 290 292 292 293 294 295 298 300 300 301 303 305 305 305 305 305 306
250 252 253 254 256 258 259 260 261 263 265 268 269 270 270 272 276 278 279 280 280 280 282 283 284 286 288 290 291 291 292 293 294 297 299 300 301 302 303 304 305 303 303 304
250 251 252 254 256 257 259 260 262 264 266 267 269 271 271 273 275 276 278 278 278 279 281 283 285 286 287 290 292 292 293 294 294 295 296 297 299 300 300 301 302 303 303 304
249 250 251 253 255 257 259 261 263 264 264 265 268 270 271 271 273 275 275 275 277 279 281 284 285 286 286 289 292 293 294 294 294 295 296 297 298 298 298 299 301 301 301 303
248 249 250 252 254 255 257 260 261 263 264 266 268 270 271 271 273 275 275 275 277 278 280 282 283 284 285 287 290 293 295 296 295 296 297 298 298 298 298 298 299 300 300 301
248 248 249 250 252 255 257 259 261 262 264 265 267 268 269 270 273 275 276 276 276 277 278 280 281 282 284 286 289 292 295 296 296 295 295 296 297 299 300 300 299 300 300 301
247 248 249 250 252 254 257 260 261 261 263 265 266 266 266 268 271 272 273 275 277 277 278 278 280 281 284 287 290 293 295 297 297 297 297 298 299 299 299 299 301 302 301 299
247 248 249 251 252 254 256 258 259 260 262 263 265 266 268 270 272 272 273 276 278 278 278 278 279 281 284 287 289 291 293 295 297 297 297 298 297 298 300 299 300 302 302 300
246 248 249 250 251 252 253 256 259 259 261 263 264 267 268 269 270 271 273 275 276 277 276 277 280 282 284 286 288 289 292 294 296 297 297 299 299 299 300 300 300 301 301 299
247 250 251 251 252 253 254 257 260 260 261 263 265 266 267 267 268 269 271 274 275 277 277 278 280 282 284 285 287 289 290 293 295 296 298 299 300 300 301 302 303 303 300 299
250 253 253 253 253 255 258 259 260 262 262 264 266 267 268 269 269 270 270 272 274 277 279 280 281 283 285 285 286 288 291 293 294 295 297 298 299 301 301 302 304 304 303 303
255 256 255 255 256 258 260 261 262 264 265 266 267 267 268 269 269 270 271 273 275 278 280 280 282 284 285 286 288 290 292 293 293 294 295 297 299 300 301 302 303 304 304 304
256 256 256 256 256 258 259 260 262 262 262 264 266 267 269 269 269 270 272 273 275 278 280 282 283 285 286 287 288 290 290 291 292 293 295 297 299 300 301 302 303 303 303 303
260 260 258 257 259 261 262 260 261 261 262 263 264 266 269 270 271 272 274 275 276 277 279 281 282 282 284 285 288 289 290 292 293 294 295 296 297 299 300 302 303 303 304 304
263 262 261 260 261 261 261 261 262 263 263 262 264 267 268 269 270 271 273 274 275 277 279 281 282 283 284 285 287 288 289 291 293 294 295 295 296 297 299 300 302 303 303 304
263 263 262 263 264 263 262 262 263 264 264 264 267 269 269 271 273 275 275 276 276 278 280 281 282 284 284 285 286 288 289 290 292 294 295 295 295 296 298 300 301 302 302 303
Height
5869 5871 5872 5873 5874 5875 5876 5876 5877 5877 5877 5877 5876 5876 5875 5874 5873 5872 5871 5870 5868 5866 5864 5863 5861 5859 5858 5856 5854 5851 5849 5847 5844 5842 5839 5837 5835 5832 5829 5826 5823 5820 5817 5814
5863 5865 5866 5868 5869 5870 5871 5872 5872 5872 5873 5873 5872 5871 5871 5870 5869 5868 5867 5866 5864 5863 5861 5859 5858 5856 5854 5852 5850 5848 5846 5843 5841 5838 5836 5834 5831 5829 5826 5823 5820 5817 5813 5811
5857 5859 5860 5862 5864 5865 5866 5867 5867 5867 5869 5868 5867 5867 5866 5866 5865 5864 5863 5861 5860 5859 5857 5856 5854 5852 5850 5848 5846 5844 5842 5840 5837 5835 5832 5830 5827 5825 5822 5819 5816 5813 5810 5807
5851 5853 5854 5859 5859 5860 5861 5861 5862 5862 5862 5862 5862 5862 5861 5861 5860 5859 5858 5857 5856 5854 5853 5851 5849 5848 5846 5844 5842 5840 5838 5836 5833 5831 5828 5826 5823 5820 5818 5815 5812 5809 5806 5803
5844 5845 5847 5851 5852 5853 5854 5855 5856 5856 5856 5856 5856 5856 5856 5855 5855 5854 5853 5852 5851 5849 5848 5846 5845 5843 5841 5839 5837 5835 5833 5831 5828 5826 5824 5821 5819 5816 5813 5810 5807 5804 5801 5798
5837 5839 5841 5845 5846 5846 5849 5849 5850 5850 5850 5850 5850 5850 5851 5850 5849 5848 5847 5846 5845 5844 5842 5841 5840 5838 5836 5834 5832 5830 5828 5825 5823 5821 5819 5816 5814 5811 5808 5805 5802 5799 5796 5793
5830 5831 5834 5837 5838 5840 5842 5844 5843 5843 5844 5844 5844 5844 5844 5843 5842 5842 5841 5840 5839 5838 5836 5835 5834 5832 5831 5829 5826 5824 5822 5819 5817 5815 5813 5811 5808 5805 5803 5800 5797 5794 5791 5788
5823 5825 5829 5829 5831 5833 5834 5835 5836 5836 5837 5837 5837 5837 5837 5836 5836 5835 5834 5833 5832 5831 5830 5829 5827 5826 5824 5822 5820 5818 5816 5814 5812 5809 5807 5804 5802 5799 5796 5794 5791 5788 5785 5782
5816 5819 5820 5822 5824 5825 5826 5828 5828 5829 5829 5830 5829 5829 5830 5830 5829 5828 5827 5826 5825 5824 5823 5822 5821 5819 5817 5815 5813 5811 5809 5807 5805 5803 5801 5798 5796 5793 5790 5787 5784 5781 5779 5775
5808 5810 5812 5814 5816 5817 5819 5820 5820 5821 5822 5822 5822 5822 5822 5822 5822 5821 5820 5819 5818 5817 5816 5815 5813 5812 5810 5807 5806 5804 5803 5801 5799 5796 5794 5792 5789 5787 5784 5781 5777 5775 5772 5768
5799 5802 5804 5806 5808 5809 5811 5812 5812 5813 5814 5814 5814 5814 5814 5814 5813 5813 5812 5811 5810 5809 5808 5807 5806 5805 5803 5801 5799 5798 5796 5794 5792 5789 5787 5785 5783 5780 5777 5774 5771 5768 5764 5761
5791 5793 5796 5798 5799 5801 5802 5803 5804 5805 5805 5805 5806 5806 5805 5805 5805 5805 5804 5803 5802 5801 5800 5800 5799 5797 5795 5794 5792 5790 5789 5787 5785 5782 5780 5777 5775 5773 5770 5767 5764 5760 5757 5754
5782 5784 5786 5789 5791 5792 5794 5795 5796 5796 5797 5797 5797 5797 5797 5797 5797 5796 5796 5795 5794 5793 5793 5792 5790 5789 5788 5786 5785 5783 5781 5780 5778 5775 5773 5771 5768 5766 5763 5760 5757 5753 5749 5746
5772 5775 5777 5780 5782 5783 5785 5786 5787 5788 5788 5789 5789 5789 5788 5788 5788 5787 5787 5786 5786 5785 5785 5784 5782 5781 5780 5779 5777 5775 5774 5772 5770 5767 5765 5763 5760 5758 5755 5752 5749 5746 5742 5739
5762 5765 5768 5770 5772 5774 5776 5777 5778 5779 5780 5780 5780 5780 5779 5779 5778 5778 5777 5777 5777 5777 5777 5776 5774 5773 5771 5770 5769 5767 5765 5763 5761 5759 5757 5754 5752 5749 5746 5743 5741 5738 5734 5731
5752 5755 5758 5760 5763 5765 5767 5768 5770 5770 5771 5771 5771 5771 5770 5770 5769 5769 5769 5769 5769 5769 5769 5768 5766 5765 5763 5762 5760 5759 5757 5755 5753 5751 5748 5746 5744 5741 5738 5735 5733 5729 5726 5723
5743 5746 5748 5751 5754 5756 5758 5759 5760 5761 5762 5762 5762 5762 5762 5762 5762 5761 5761 5761 5760 5760 5760 5759 5758 5757 5755 5754 5752 5751 5749 5747 5745 5743 5740 5738 5735 5733 5730 5727 5724 5721 5718 5715
5733 5737 5739 5742 5745 5747 5749 5750 5751 5752 5753 5753 5753 5753 5753 5753 5753 5753 5753 5752 5752 5751 5751 5750 5750 5749 5747 5746 5744 5743 5741 5739 5737 5735 5732 5730 5727 5725 5722 5719 5716 5713 5709 5706
5724 5728 5731 5733 5736 5738 5740 5741 5743 5744 5745 5745 5745 5744 5744 5745 5744 5744 5744 5744 5743 5743 5742 5742 5741 5740 5739 5738 5736 5735 5733 5731 5728 5726 5724 5722 5719 5717 5713 5710 5708 5704 5701 5699
5717 5719 5722 5725 5727 5730 5731 5733 5734 5735 5736 5737 5737 5736 5736 5736 5736 5736 5735 5735 5735 5734 5734 5733 5733 5732 5731 5729 5728 5726 5725 5723 5720 5718 5716 5714 5711 5708 5706 5703 5700 5697 5694 5691
5710 5712 5714 5716 5719 5721 5723 5724 5725 5726 5727 5728 5729 5728 5728 5728 5728 5728 5728 5728 5727 5726 5726 5725 5724 5723 5722 5721 5719 5718 5716 5714 5712 5710 5708 5706 5703 5701 5698 5695 5692 5689 5686 5683
5702 5704 5706 5709 5711 5713 5714 5716 5717 5717 5718 5719 5720 5720 5720 5721 5721 5720 5720 5720 5719 5718 5717 5717 5716 5715 5714 5713 5711 5710 5708 5706 5705 5703 5700 5698 5696 5693 5690 5688 5685 5681 5679 5676
5695 5697 5699 5701 5703 5705 5706 5707 5708 5709 5710 5710 5711 5712 5712 5712 5712 5712 5712 5712 5711 5710 5709 5709 5708 5706 5705 5704 5703 5701 5700 5698 5696 5695 5693 5690 5688 5685 5683 5680 5677 5674 5672 5669
5689 5690 5692 5693 5695 5696 5698 5699 5700 5701 5702 5702 5703 5703 5704 5704 5704 5704 5704 5703 5703 5702 5701 5700 5700 5699 5697 5696 5695 5693 5692 5690 5689 5687 5685 5683 5680 5678 5675 5672 5670 5667 5664 5661
5683 5684 5685 5686 5687 5688 5689 5690 5691 5692 5693 5694 5695 5695 5695 5695 5696 5696 5695 5695 5695 5694 5693 5692 5691 5690 5689 5688 5687 5685 5684 5683 5681 5679 5677 5675 5673 5670 5668 5665 5662 5660 5657 5654
5677 5678 5678 5679 5680 5681 5682 5683 5683 5684 5685 5686 5686 5687 5687 5687 5687 5687 5687 5687 5686 5686 5685 5684 5683 5682 5681 5680 5679 5678 5676 5675 5673 5671 5669 5667 5665 5663 5660 5658 5655 5652 5650 5647
5671 5672 5673 5673 5673 5674 5675 5675 5676 5677 5677 5678 5678 5679 5679 5679 5679 5679 5679 5678 5678 5678 5677 5676 5675 5674 5673 5672 5671 5670 5668 5667 5665 5663 5661 5659 5657 5655 5652 5650 5648 5645 5643 5640